Time,TemperatureF,DewpointF,PressureIn,WindDirection,WindDirectionDegrees,WindSpeedMPH,WindSpeedGustMPH,Humidity,HourlyPrecipIn,Conditions,Clouds,dailyrainin,SoftwareType,DateUTC
2013-05-24 00:02:00,50.0,45.0,30.25,WNW,303,0.0,0.0,83,0.00,,,0.09,,2013-05-24 05:02:00,
2013-05-24 00:12:00,50.0,45.0,30.25,WNW,303,0.0,0.0,83,0.00,,,0.09,,2013-05-24 05:12:00,
2013-05-24 00:22:00,49.0,44.0,30.26,WNW,303,0.0,0.0,83,0.00,,,0.09,,2013-05-24 05:22:00,
2013-05-24 00:32:00,49.0,44.0,30.27,WNW,303,0.0,0.0,83,0.00,,,0.09,,2013-05-24 05:32:00,
2013-05-24 00:42:00,49.0,44.0,30.27,WNW,303,0.0,0.0,83,0.00,,,0.09,,2013-05-24 05:42:00,
2013-05-24 00:52:00,48.0,43.0,30.27,WNW,303,0.0,0.0,84,0.00,,,0.09,,2013-05-24 05:52:00,
2013-05-24 01:02:00,47.0,42.0,30.27,WNW,303,0.0,0.0,84,0.00,,,0.09,,2013-05-24 06:02:00,
2013-05-24 01:12:00,47.0,42.0,30.27,WNW,303,0.0,0.0,84,0.00,,,0.09,,2013-05-24 06:12:00,
2013-05-24 01:21:00,47.0,43.0,30.28,WNW,303,0.0,0.0,85,0.00,,,0.09,,2013-05-24 06:21:00,
2013-05-24 01:32:00,47.0,43.0,30.29,WNW,303,0.0,0.0,86,0.00,,,0.09,,2013-05-24 06:32:00,
2013-05-24 01:41:00,47.0,43.0,30.29,WNW,303,0.0,0.0,86,0.00,,,0.09,,2013-05-24 06:41:00,
2013-05-24 01:52:00,47.0,43.0,30.29,WNW,303,0.0,0.0,86,0.00,,,0.09,,2013-05-24 06:52:00,
2013-05-24 02:01:00,47.0,43.0,30.30,WNW,303,0.0,0.0,86,0.00,,,0.09,,2013-05-24 07:01:00,
2013-05-24 02:11:00,47.0,43.0,30.30,WNW,303,0.0,0.0,86,0.00,,,0.09,,2013-05-24 07:11:00,
2013-05-24 02:22:00,46.0,42.0,30.30,WNW,303,0.0,0.0,86,0.00,,,0.07,,2013-05-24 07:22:00,
2013-05-24 02:31:00,46.0,42.0,30.30,WNW,303,0.0,0.0,86,0.00,,,0.07,,2013-05-24 07:31:00,
2013-05-24 02:42:00,46.0,42.0,30.30,WNW,303,0.0,0.0,86,0.00,,,0.07,,2013-05-24 07:42:00,
2013-05-24 02:52:00,46.0,42.0,30.31,WNW,303,0.0,0.0,86,0.00,,,0.07,,2013-05-24 07:52:00,
2013-05-24 03:02:00,46.0,42.0,30.31,WNW,303,0.0,0.0,87,0.00,,,0.07,,2013-05-24 08:02:00,
2013-05-24 03:11:00,46.0,42.0,30.31,WNW,303,0.0,0.0,87,0.00,,,0.07,,2013-05-24 08:11:00,
2013-05-24 03:22:00,45.0,41.0,30.31,WNW,303,0.0,0.0,86,0.00,,,0.07,,2013-05-24 08:22:00,
2013-05-24 03:32:00,45.0,41.0,30.32,WNW,303,0.0,0.0,86,0.00,,,0.07,,2013-05-24 08:32:00,
2013-05-24 03:42:00,45.0,41.0,30.32,WNW,303,0.0,0.0,86,0.00,,,0.07,,2013-05-24 08:42:00,
2013-05-24 03:52:00,45.0,41.0,30.32,WNW,303,0.0,1.0,87,0.00,,,0.07,,2013-05-24 08:52:00,
2013-05-24 04:01:00,46.0,43.0,30.32,NW,307,0.0,2.0,88,0.00,,,0.07,,2013-05-24 09:01:00,
2013-05-24 04:11:00,46.0,43.0,30.32,NW,307,0.0,2.0,88,0.00,,,0.07,,2013-05-24 09:11:00,
2013-05-24 04:21:00,46.0,43.0,30.34,SSE,167,1.0,4.0,88,0.00,,,0.07,,2013-05-24 09:21:00,
2013-05-24 04:32:00,46.0,42.0,30.34,SSW,192,0.0,2.0,87,0.00,,,0.07,,2013-05-24 09:32:00,
2013-05-24 04:42:00,46.0,42.0,30.34,SSW,192,0.0,2.0,87,0.00,,,0.07,,2013-05-24 09:42:00,
2013-05-24 04:53:00,46.0,42.0,30.35,SSE,161,0.0,2.0,86,0.00,,,0.07,,2013-05-24 09:53:00,
2013-05-24 05:02:00,45.0,41.0,30.36,SSE,159,0.0,1.0,85,0.00,,,0.07,,2013-05-24 10:02:00,
2013-05-24 05:12:00,45.0,41.0,30.36,SSE,159,0.0,1.0,85,0.00,,,0.07,,2013-05-24 10:12:00,
2013-05-24 05:22:00,45.0,41.0,30.36,SSE,159,0.0,0.0,85,0.00,,,0.07,,2013-05-24 10:22:00,
2013-05-24 05:32:00,44.0,40.0,30.37,SSE,159,0.0,1.0,85,0.00,,,0.07,,2013-05-24 10:32:00,
2013-05-24 05:42:00,44.0,40.0,30.37,SSE,159,0.0,1.0,85,0.00,,,0.07,,2013-05-24 10:42:00,
2013-05-24 05:52:00,43.0,38.0,30.38,SSE,159,0.0,1.0,84,0.00,,,0.07,,2013-05-24 10:52:00,
2013-05-24 06:02:00,43.0,38.0,30.38,SSE,159,0.0,0.0,84,0.00,,,0.07,,2013-05-24 11:02:00,
2013-05-24 06:12:00,43.0,38.0,30.38,SSE,159,0.0,0.0,84,0.00,,,0.07,,2013-05-24 11:12:00,
2013-05-24 06:22:00,42.0,38.0,30.38,SSE,159,0.0,0.0,84,0.00,,,0.05,,2013-05-24 11:22:00,
2013-05-24 06:32:00,42.0,37.0,30.40,SSE,165,0.0,2.0,83,0.00,,,0.05,,2013-05-24 11:32:00,
2013-05-24 06:42:00,42.0,37.0,30.40,SSE,165,0.0,2.0,83,0.00,,,0.05,,2013-05-24 11:42:00,
2013-05-24 06:52:00,42.0,37.0,30.40,SSE,165,0.0,1.0,82,0.00,,,0.05,,2013-05-24 11:52:00,
2013-05-24 07:02:00,42.0,36.0,30.41,East,90,0.0,2.0,80,0.00,,,0.05,,2013-05-24 12:02:00,
2013-05-24 07:11:00,42.0,36.0,30.41,East,90,0.0,2.0,80,0.00,,,0.05,,2013-05-24 12:11:00,
2013-05-24 07:21:00,42.0,36.0,30.41,East,96,0.0,0.0,80,0.00,,,0.05,,2013-05-24 12:21:00,
2013-05-24 07:32:00,43.0,37.0,30.42,East,96,0.0,1.0,78,0.00,,,0.05,,2013-05-24 12:32:00,
2013-05-24 07:42:00,43.0,37.0,30.42,East,96,0.0,1.0,78,0.00,,,0.05,,2013-05-24 12:42:00,
2013-05-24 07:52:00,45.0,38.0,30.42,ESE,114,0.0,2.0,75,0.00,,,0.05,,2013-05-24 12:52:00,
2013-05-24 08:02:00,47.0,37.0,30.42,SSW,207,1.0,4.0,67,0.00,,,0.05,,2013-05-24 13:02:00,
2013-05-24 08:11:00,47.0,37.0,30.42,SSW,207,1.0,4.0,67,0.00,,,0.05,,2013-05-24 13:11:00,
2013-05-24 08:21:00,48.0,37.0,30.43,SE,136,0.0,4.0,65,0.00,,,0.00,,2013-05-24 13:21:00,
2013-05-24 08:32:00,49.0,36.0,30.44,SE,128,1.0,2.0,61,0.00,,,0.00,,2013-05-24 13:32:00,
2013-05-24 08:41:00,49.0,36.0,30.44,SE,128,1.0,2.0,61,0.00,,,0.00,,2013-05-24 13:41:00,
2013-05-24 08:52:00,50.0,36.0,30.44,ESE,120,2.0,5.0,59,0.00,,,0.00,,2013-05-24 13:52:00,
2013-05-24 09:01:00,50.0,35.0,30.44,ESE,119,2.0,4.0,57,0.00,,,0.00,,2013-05-24 14:01:00,
2013-05-24 09:11:00,50.0,35.0,30.44,ESE,119,2.0,4.0,57,0.00,,,0.00,,2013-05-24 14:11:00,
2013-05-24 09:21:00,50.0,37.0,30.44,East,94,1.0,4.0,61,0.00,,,0.00,,2013-05-24 14:21:00,
2013-05-24 09:31:00,51.0,37.0,30.44,ESE,103,1.0,4.0,58,0.00,,,0.00,,2013-05-24 14:31:00,
2013-05-24 09:42:00,51.0,37.0,30.44,ESE,103,1.0,4.0,58,0.00,,,0.00,,2013-05-24 14:42:00,
2013-05-24 09:52:00,52.0,38.0,30.44,ESE,116,0.0,4.0,58,0.00,,,0.00,,2013-05-24 14:52:00,
2013-05-24 10:02:00,53.0,37.0,30.44,South,186,1.0,4.0,54,0.00,,,0.00,,2013-05-24 15:02:00,
2013-05-24 10:11:00,53.0,37.0,30.44,South,186,1.0,4.0,54,0.00,,,0.00,,2013-05-24 15:11:00,
2013-05-24 10:21:00,55.0,38.0,30.43,East,99,0.0,5.0,52,0.00,,,0.00,,2013-05-24 15:21:00,
2013-05-24 10:32:00,56.0,38.0,30.42,ESE,119,1.0,4.0,50,0.00,,,0.00,,2013-05-24 15:32:00,
2013-05-24 10:43:00,56.0,38.0,30.42,ESE,119,1.0,4.0,50,0.00,,,0.00,,2013-05-24 15:43:00,
2013-05-24 10:52:00,57.0,38.0,30.42,East,99,1.0,4.0,48,0.00,,,0.00,,2013-05-24 15:52:00,
2013-05-24 11:03:00,58.0,36.0,30.42,SSE,149,3.0,5.0,44,0.00,,,0.00,,2013-05-24 16:03:00,
2013-05-24 11:12:00,58.0,36.0,30.42,SSE,149,3.0,5.0,44,0.00,,,0.00,,2013-05-24 16:12:00,
2013-05-24 11:22:00,58.0,37.0,30.43,SSE,161,1.0,6.0,46,0.00,,,0.00,,2013-05-24 16:22:00,
2013-05-24 11:32:00,59.0,39.0,30.42,ESE,123,1.0,3.0,48,0.00,,,0.00,,2013-05-24 16:32:00,
2013-05-24 11:42:00,59.0,39.0,30.42,ESE,123,1.0,3.0,48,0.00,,,0.00,,2013-05-24 16:42:00,
2013-05-24 11:52:00,60.0,39.0,30.42,SSE,150,0.0,2.0,46,0.00,,,0.00,,2013-05-24 16:52:00,
2013-05-24 12:02:00,61.0,40.0,30.42,South,181,1.0,4.0,45,0.00,,,0.00,,2013-05-24 17:02:00,
2013-05-24 12:12:00,61.0,40.0,30.42,South,181,1.0,4.0,45,0.00,,,0.00,,2013-05-24 17:12:00,
2013-05-24 12:22:00,62.0,44.0,30.41,North,355,0.0,4.0,52,0.00,,,0.00,,2013-05-24 17:22:00,
2013-05-24 12:32:00,62.0,42.0,30.40,SE,127,1.0,3.0,47,0.00,,,0.00,,2013-05-24 17:32:00,
2013-05-24 12:42:00,62.0,42.0,30.40,SE,127,1.0,3.0,47,0.00,,,0.00,,2013-05-24 17:42:00,
2013-05-24 12:52:00,63.0,42.0,30.40,NE,36,0.0,5.0,46,0.00,,,0.00,,2013-05-24 17:52:00,
2013-05-24 13:01:00,63.0,42.0,30.40,East,88,0.0,5.0,47,0.00,,,0.00,,2013-05-24 18:01:00,
2013-05-24 13:12:00,63.0,42.0,30.40,East,88,0.0,5.0,47,0.00,,,0.00,,2013-05-24 18:12:00,
2013-05-24 13:21:00,64.0,38.0,30.39,NNW,338,0.0,4.0,38,0.00,,,0.00,,2013-05-24 18:21:00,
2013-05-24 13:32:00,65.0,41.0,30.37,ENE,63,0.0,5.0,41,0.00,,,0.00,,2013-05-24 18:32:00,
2013-05-24 13:42:00,65.0,41.0,30.37,ENE,63,0.0,5.0,41,0.00,,,0.00,,2013-05-24 18:42:00,
2013-05-24 13:52:00,65.0,37.0,30.37,ESE,112,0.0,3.0,35,0.00,,,0.00,,2013-05-24 18:52:00,
2013-05-24 14:01:00,65.0,38.0,30.36,ESE,109,1.0,3.0,37,0.00,,,0.00,,2013-05-24 19:01:00,
2013-05-24 14:11:00,65.0,38.0,30.36,ESE,109,1.0,3.0,37,0.00,,,0.00,,2013-05-24 19:11:00,
2013-05-24 14:21:00,66.0,40.0,30.36,ESE,115,1.0,4.0,38,0.00,,,0.00,,2013-05-24 19:21:00,
2013-05-24 14:32:00,67.0,40.0,30.35,ESE,117,0.0,3.0,37,0.00,,,0.00,,2013-05-24 19:32:00,
2013-05-24 14:41:00,67.0,40.0,30.35,ESE,117,0.0,3.0,37,0.00,,,0.00,,2013-05-24 19:41:00,
2013-05-24 14:52:00,67.0,39.0,30.34,ENE,65,1.0,4.0,36,0.00,,,0.00,,2013-05-24 19:52:00,
2013-05-24 15:02:00,68.0,35.0,30.33,SSE,150,3.0,4.0,29,0.00,,,0.00,,2013-05-24 20:02:00,
2013-05-24 15:11:00,68.0,35.0,30.33,SSE,150,3.0,4.0,29,0.00,,,0.00,,2013-05-24 20:11:00,
2013-05-24 15:21:00,68.0,34.0,30.34,ESE,109,1.0,3.0,28,0.00,,,0.00,,2013-05-24 20:21:00,
2013-05-24 15:32:00,69.0,41.0,30.32,ESE,122,0.0,4.0,36,0.00,,,0.00,,2013-05-24 20:32:00,
2013-05-24 15:41:00,69.0,41.0,30.32,ESE,122,0.0,4.0,36,0.00,,,0.00,,2013-05-24 20:41:00,
2013-05-24 15:52:00,70.0,40.0,30.32,ESE,106,2.0,4.0,34,0.00,,,0.00,,2013-05-24 20:52:00,
2013-05-24 16:01:00,69.0,31.0,30.32,East,92,0.0,3.0,24,0.00,,,0.00,,2013-05-24 21:01:00,
2013-05-24 16:11:00,69.0,31.0,30.32,East,92,0.0,3.0,24,0.00,,,0.00,,2013-05-24 21:11:00,
2013-05-24 16:21:00,70.0,38.0,30.32,SSE,147,0.0,1.0,31,0.00,,,0.00,,2013-05-24 21:21:00,
2013-05-24 16:32:00,70.0,34.0,30.31,East,90,1.0,6.0,27,0.00,,,0.00,,2013-05-24 21:32:00,
2013-05-24 16:42:00,70.0,34.0,30.31,East,90,1.0,6.0,27,0.00,,,0.00,,2013-05-24 21:42:00,
2013-05-24 16:53:00,69.0,33.0,30.30,ESE,113,0.0,3.0,26,0.00,,,0.00,,2013-05-24 21:53:00,
2013-05-24 17:02:00,70.0,34.0,30.29,East,96,2.0,4.0,26,0.00,,,0.00,,2013-05-24 22:02:00,
2013-05-24 17:12:00,70.0,34.0,30.29,East,96,2.0,4.0,26,0.00,,,0.00,,2013-05-24 22:12:00,
2013-05-24 17:22:00,69.0,32.0,30.29,SE,130,1.0,3.0,25,0.00,,,0.00,,2013-05-24 22:22:00,
2013-05-24 17:33:00,69.0,33.0,30.28,East,94,0.0,3.0,26,0.00,,,0.00,,2013-05-24 22:33:00,
2013-05-24 17:42:00,69.0,33.0,30.28,East,94,0.0,3.0,26,0.00,,,0.00,,2013-05-24 22:42:00,
2013-05-24 17:52:00,69.0,33.0,30.28,SE,137,0.0,4.0,26,0.00,,,0.00,,2013-05-24 22:52:00,
2013-05-24 18:02:00,69.0,34.0,30.27,ESE,121,1.0,5.0,27,0.00,,,0.00,,2013-05-24 23:02:00,
2013-05-24 18:11:00,69.0,34.0,30.27,ESE,121,1.0,5.0,27,0.00,,,0.00,,2013-05-24 23:11:00,
2013-05-24 18:22:00,69.0,34.0,30.27,ESE,117,1.0,6.0,27,0.00,,,0.00,,2013-05-24 23:22:00,
2013-05-24 18:32:00,69.0,35.0,30.27,ESE,115,0.0,2.0,28,0.00,,,0.00,,2013-05-24 23:32:00,
2013-05-24 18:42:00,69.0,35.0,30.27,ESE,115,0.0,2.0,28,0.00,,,0.00,,2013-05-24 23:42:00,
2013-05-24 18:52:00,68.0,35.0,30.27,ESE,114,0.0,3.0,29,0.00,,,0.00,,2013-05-24 23:52:00,
2013-05-24 19:01:00,67.0,32.0,30.27,NNE,32,0.0,3.0,27,0.00,,,0.00,,2013-05-25 00:01:00,
2013-05-24 19:11:00,67.0,32.0,30.27,NNE,32,0.0,3.0,27,0.00,,,0.00,,2013-05-25 00:11:00,
2013-05-24 19:21:00,67.0,35.0,30.27,NNE,18,0.0,2.0,31,0.00,,,0.00,,2013-05-25 00:21:00,
2013-05-24 19:32:00,66.0,34.0,30.27,SW,229,0.0,1.0,30,0.00,,,0.00,,2013-05-25 00:32:00,
2013-05-24 19:41:00,66.0,34.0,30.27,SW,229,0.0,1.0,30,0.00,,,0.00,,2013-05-25 00:41:00,
2013-05-24 19:52:00,66.0,35.0,30.27,SW,229,0.0,0.0,32,0.00,,,0.00,,2013-05-25 00:52:00,
2013-05-24 20:01:00,65.0,37.0,30.28,SW,229,0.0,0.0,35,0.00,,,0.00,,2013-05-25 01:01:00,
2013-05-24 20:11:00,65.0,37.0,30.28,SW,229,0.0,0.0,35,0.00,,,0.00,,2013-05-25 01:11:00,
2013-05-24 20:22:00,64.0,39.0,30.28,SW,229,0.0,0.0,40,0.00,,,0.00,,2013-05-25 01:22:00,
2013-05-24 20:32:00,62.0,40.0,30.27,SW,229,0.0,0.0,45,0.00,,,0.00,,2013-05-25 01:32:00,
2013-05-24 20:42:00,62.0,40.0,30.27,SW,229,0.0,0.0,45,0.00,,,0.00,,2013-05-25 01:42:00,
2013-05-24 20:52:00,59.0,40.0,30.27,SW,229,0.0,0.0,49,0.00,,,0.00,,2013-05-25 01:52:00,
2013-05-24 21:01:00,58.0,41.0,30.28,SW,229,0.0,0.0,53,0.00,,,0.00,,2013-05-25 02:01:00,
2013-05-24 21:11:00,58.0,41.0,30.28,SW,229,0.0,0.0,53,0.00,,,0.00,,2013-05-25 02:11:00,
2013-05-24 21:21:00,56.0,41.0,30.29,SW,229,0.0,0.0,58,0.00,,,0.00,,2013-05-25 02:21:00,
2013-05-24 21:31:00,55.0,42.0,30.29,SW,229,0.0,0.0,62,0.00,,,0.00,,2013-05-25 02:31:00,
2013-05-24 21:42:00,55.0,42.0,30.29,SW,229,0.0,0.0,62,0.00,,,0.00,,2013-05-25 02:42:00,
2013-05-24 21:52:00,53.0,42.0,30.30,SW,229,0.0,0.0,65,0.00,,,0.00,,2013-05-25 02:52:00,
2013-05-24 22:01:00,53.0,43.0,30.31,SW,229,0.0,0.0,69,0.00,,,0.00,,2013-05-25 03:01:00,
2013-05-24 22:11:00,53.0,43.0,30.31,SW,229,0.0,0.0,69,0.00,,,0.00,,2013-05-25 03:11:00,
2013-05-24 22:21:00,52.0,43.0,30.31,SW,229,0.0,0.0,70,0.00,,,0.00,,2013-05-25 03:21:00,
2013-05-24 22:32:00,52.0,43.0,30.33,SW,229,0.0,0.0,71,0.00,,,0.00,,2013-05-25 03:32:00,
2013-05-24 22:43:00,52.0,43.0,30.33,SW,229,0.0,0.0,71,0.00,,,0.00,,2013-05-25 03:43:00,
2013-05-24 22:53:00,52.0,44.0,30.33,SW,229,0.0,0.0,73,0.00,,,0.00,,2013-05-25 03:53:00,
2013-05-24 23:02:00,52.0,44.0,30.32,SW,229,0.0,0.0,73,0.00,,,0.00,,2013-05-25 04:02:00,
2013-05-24 23:12:00,52.0,44.0,30.32,SW,229,0.0,0.0,73,0.00,,,0.00,,2013-05-25 04:12:00,
2013-05-24 23:23:00,52.0,44.0,30.31,SW,229,0.0,0.0,75,0.00,,,0.00,,2013-05-25 04:23:00,
2013-05-24 23:33:00,52.0,44.0,30.30,SW,229,0.0,1.0,75,0.00,,,0.00,,2013-05-25 04:33:00,
2013-05-24 23:43:00,52.0,44.0,30.30,SW,229,0.0,1.0,75,0.00,,,0.00,,2013-05-25 04:43:00,
2013-05-24 23:53:00,53.0,45.0,30.29,SW,229,0.0,1.0,74,0.00,,,0.00,,2013-05-25 04:53:00,